Theta_e
315 316 318 323 321 318 319 318 315 316 316 316 316 317 318 317 319 319 321 323 321 317 319 318 324 326 330 328 327 327 327 327 328 329 328 322 321 320 319 320 323 327 329 325 320 320 319 319 322
315 317 320 324 320 317 314 315 317 316 315 317 316 317 318 318 320 321 322 322 323 318 315 314 314 316 322 332 330 327 327 333 329 332 334 326 320 318 318 321 323 322 322 320 320 322 321 320 321
315 318 321 317 314 316 315 315 315 315 316 317 317 317 318 319 320 321 321 322 320 321 317 315 314 314 313 328 330 328 334 333 333 332 329 320 319 318 317 318 319 320 319 319 317 315 314 314 313
317 320 317 319 319 317 315 316 312 315 316 316 316 315 317 319 320 319 320 322 320 321 321 318 315 312 313 326 333 332 332 332 332 327 318 315 316 315 313 313 313 314 313 313 313 312 311 310 309
318 318 314 314 314 314 312 315 313 314 315 315 316 315 316 317 317 319 318 319 321 321 321 319 316 312 313 319 328 330 330 328 317 313 312 312 312 311 311 311 310 310 309 308 306 304 304 304 304
317 316 316 314 312 312 312 315 313 313 314 314 315 315 317 317 316 316 317 317 320 321 320 319 316 313 313 314 315 317 317 317 314 312 311 311 309 307 306 305 304 304 304 304 303 303 303 304 304
315 313 314 313 313 314 314 314 313 314 314 315 316 314 317 317 317 317 317 317 317 317 319 319 316 314 314 314 314 314 313 314 312 311 309 307 306 304 303 304 304 304 304 303 303 304 304 305 305
318 314 314 312 314 314 314 314 314 315 315 316 316 315 316 317 317 318 317 317 317 316 316 318 318 315 314 314 313 313 313 311 310 309 308 306 303 304 304 304 304 303 303 303 304 304 305 305 305
317 312 312 313 311 313 314 313 314 315 315 315 316 317 317 317 317 317 317 317 317 317 316 316 318 317 314 313 313 313 312 310 309 308 307 304 304 305 305 305 304 304 304 304 305 305 305 305 305
315 311 311 309 309 312 314 314 315 315 316 313 315 317 317 317 316 316 316 317 317 317 317 316 316 317 316 314 313 312 312 309 308 308 308 304 304 304 305 305 304 304 304 304 304 304 305 305 304
314 314 310 312 312 313 314 313 315 314 313 316 316 317 316 316 316 316 316 316 316 316 317 316 315 316 317 315 313 313 312 309 308 308 307 303 304 305 306 306 305 305 304 304 304 304 304 304 304
315 315 314 315 315 315 314 314 313 315 317 316 317 317 316 316 316 316 316 316 315 316 316 316 316 315 316 316 314 313 312 311 309 308 307 304 304 304 305 306 305 305 305 304 304 304 304 304 303
313 313 316 316 315 316 316 314 313 315 316 316 315 315 315 315 315 316 316 315 315 315 315 315 316 316 315 316 315 314 313 312 310 308 307 306 303 304 305 306 305 305 304 304 304 304 304 303 303
312 313 313 313 314 314 313 314 312 314 314 315 314 315 315 314 315 315 316 316 316 316 315 315 315 315 315 315 315 315 314 313 311 309 307 307 304 303 304 305 305 305 304 304 303 303 303 303 303
312 311 308 308 311 310 311 311 309 314 314 314 314 315 315 315 316 316 316 316 316 316 315 315 315 315 315 315 315 315 315 314 312 310 308 306 305 303 303 304 304 304 303 303 303 303 303 303 303
310 308 310 309 308 310 312 311 310 313 313 313 314 314 314 315 315 315 315 314 315 315 315 315 315 315 315 315 315 315 314 314 313 311 309 307 306 303 302 302 303 302 302 302 302 302 302 301 302
307 309 307 308 308 309 309 310 309 312 311 311 312 313 313 313 314 314 314 314 314 314 314 314 314 315 315 314 314 314 314 314 313 312 310 308 306 304 301 301 302 301 301 301 301 301 301 301 301
309 307 306 307 309 306 308 309 308 311 311 310 310 310 311 311 313 315 313 313 313 313 313 313 313 313 314 313 313 313 314 313 313 312 311 309 307 305 302 301 301 300 300 300 300 301 301 301 300
307 306 306 305 306 307 309 309 308 308 308 309 310 310 310 311 314 314 314 313 312 313 313 313 313 313 313 314 313 313 313 313 313 312 311 310 308 306 304 301 300 300 300 300 300 300 300 300 300
307 308 308 308 307 305 307 309 309 309 309 310 310 310 310 311 315 314 313 312 313 314 314 314 313 312 312 313 314 313 314 313 312 312 310 309 307 307 305 302 301 300 299 299 298 299 299 299 299
306 306 308 307 306 305 305 308 306 308 307 309 311 310 311 312 314 315 312 312 313 313 313 313 313 313 312 311 312 312 311 311 312 311 310 309 307 305 305 304 303 301 300 299 299 299 299 299 299
309 306 307 307 307 308 306 310 308 309 308 307 309 310 312 312 312 310 312 313 313 314 313 313 313 313 313 312 311 311 312 312 313 312 311 309 308 307 305 304 303 301 300 299 298 298 298 298 299
308 307 307 306 306 306 307 307 308 307 310 309 308 310 310 309 310 313 313 313 313 312 311 312 312 311 311 311 310 310 309 310 310 309 310 309 308 306 304 304 302 301 300 299 298 297 297 297 298
307 308 305 303 305 309 308 308 309 308 309 309 309 313 313 312 312 312 312 311 311 310 309 310 310 310 309 308 309 309 308 308 308 309 309 309 308 307 305 304 303 302 301 300 299 297 296 297 297
307 307 308 309 308 311 305 307 309 308 308 309 309 310 310 308 309 308 309 310 309 309 310 310 309 308 307 307 308 308 308 307 307 307 307 308 308 307 307 305 304 303 301 300 298 296 296 296 296
306 308 312 318 311 315 309 313 313 307 309 307 308 309 309 306 305 306 307 308 308 309 309 308 308 307 308 306 305 304 303 304 304 304 304 306 306 307 307 306 304 304 303 301 299 297 296 295 295
306 308 308 311 310 310 312 311 313 309 308 306 306 304 302 303 304 304 304 304 306 307 306 306 306 305 305 305 304 305 304 303 303 304 304 303 304 306 306 306 305 304 303 301 299 298 297 296 295
307 307 310 308 315 317 315 312 314 310 308 305 302 301 301 300 300 300 302 302 302 302 304 304 305 304 304 304 304 304 304 302 302 302 304 304 304 303 304 305 305 304 303 302 300 298 297 296 295
305 306 306 306 312 316 317 315 311 309 302 302 301 299 298 299 301 303 301 300 301 300 300 300 301 303 303 304 304 304 304 304 303 302 303 303 303 303 303 304 304 304 303 302 301 299 297 296 295
307 311 309 312 314 310 314 315 310 302 300 299 296 295 294 296 295 295 297 298 298 298 299 298 298 298 298 299 301 302 303 304 304 303 301 300 301 301 302 302 302 302 302 303 302 300 299 296 294
Wind_Speed
5 3 3 3 3 3 3 5 2 3 2 2 8 5 4 3 4 3 1 8 11 21 23 24 23 22 19 17 16 14 13 13 14 11 11 12 13 11 9 8 9 9 8 7 3 2 4 4 3
4 2 1 1 3 2 4 3 4 4 1 3 6 4 3 5 13 7 5 9 12 17 20 22 22 22 21 19 17 16 14 14 12 11 11 10 10 8 8 9 10 10 11 9 4 4 5 5 5
2 1 1 3 2 3 4 4 3 3 3 4 2 5 3 4 5 5 6 10 13 17 19 20 20 20 20 21 18 17 17 15 15 13 12 10 9 8 7 9 10 11 11 9 8 8 8 8 7
2 1 4 3 4 6 5 2 3 6 2 6 3 5 6 9 4 6 6 10 13 16 19 20 20 19 18 19 19 18 18 19 17 15 12 11 12 10 10 11 12 11 10 10 9 8 8 8 8
3 2 3 2 4 5 5 9 5 2 2 2 4 3 5 10 11 12 7 10 14 15 18 20 21 20 20 20 20 21 21 22 16 12 12 12 11 11 10 10 10 10 9 8 8 7 6 5 4
3 3 3 3 4 5 7 8 3 3 4 3 4 4 7 9 9 10 11 9 13 14 17 19 21 21 21 20 21 21 20 21 17 13 13 12 12 11 10 10 9 8 7 5 4 3 2 2 2
5 4 3 3 4 6 4 2 3 3 3 6 4 2 5 8 7 6 9 12 13 15 17 19 22 23 22 21 21 21 20 21 18 16 14 13 12 10 9 8 7 6 5 4 3 3 2 2 2
4 4 2 4 3 6 3 2 3 5 4 4 5 5 5 7 9 9 10 14 16 18 18 20 22 25 24 22 22 21 21 20 18 16 15 13 13 12 10 9 8 7 6 5 5 4 3 2 3
5 3 3 5 6 5 2 2 3 3 9 8 10 19 22 21 18 15 15 17 19 20 21 22 24 25 25 25 24 23 23 21 20 19 17 15 14 12 11 10 9 9 8 6 5 4 4 3 3
4 3 8 6 6 5 4 6 8 4 12 11 16 24 26 26 25 24 22 21 22 23 23 24 25 26 27 27 27 26 25 24 23 22 19 17 17 15 15 13 13 11 9 8 7 5 4 3 3
7 6 6 8 16 12 7 5 7 4 8 24 18 19 16 20 25 26 25 25 24 23 25 26 27 27 29 29 29 29 28 27 27 25 22 21 21 20 18 16 14 12 11 9 7 5 4 3 4
3 14 10 5 9 6 5 5 5 14 33 34 34 29 30 30 30 29 27 25 25 26 24 27 29 29 31 31 32 32 32 31 30 28 26 25 25 23 21 19 17 15 12 10 8 6 5 4 5
4 6 13 22 16 21 20 25 11 26 43 40 35 32 30 26 25 23 23 24 25 29 29 29 30 31 33 34 34 35 35 34 33 31 30 28 28 26 24 22 21 18 15 13 10 8 7 6 5
3 9 14 13 20 16 9 26 4 27 32 32 29 30 30 27 23 21 24 22 24 24 25 29 32 34 35 35 36 37 37 36 36 35 34 32 31 30 28 26 24 21 19 16 13 11 8 7 6
4 8 9 8 13 9 7 9 11 32 23 29 33 25 28 25 21 22 22 24 25 27 25 27 32 36 38 38 38 39 39 39 39 39 37 36 34 34 32 30 27 24 22 19 16 13 11 9 8
2 0 5 2 6 3 10 10 19 27 22 23 23 30 32 35 34 32 33 37 37 36 34 31 32 36 40 42 41 41 42 41 42 41 40 40 38 36 35 34 31 28 26 23 20 16 14 12 9
2 5 7 10 14 5 7 9 13 16 13 27 37 46 47 49 49 49 47 43 39 38 37 37 37 37 39 43 45 45 45 44 44 44 43 43 40 40 38 36 33 32 30 26 23 20 17 13 11
8 5 5 6 4 4 5 14 13 36 34 37 38 46 49 40 49 42 40 35 29 27 27 28 33 38 39 43 48 49 48 49 49 47 46 45 44 42 41 39 37 36 33 30 27 23 19 16 14
1 5 7 7 8 4 17 18 14 24 29 36 42 39 35 38 38 33 30 27 23 22 25 27 30 32 40 43 48 51 53 52 53 51 49 48 46 45 44 43 41 39 37 33 29 26 24 21 18
9 12 12 10 14 4 10 20 20 21 29 32 38 39 27 35 34 32 31 26 19 15 17 23 27 32 36 41 45 49 52 54 55 54 53 52 50 49 48 47 44 42 39 36 34 31 28 25 21
5 6 9 11 6 5 7 8 5 8 14 22 35 27 31 30 26 24 26 24 21 19 18 19 21 25 31 37 43 48 51 51 53 57 57 55 52 50 50 48 46 44 42 40 37 35 32 29 26
9 10 11 5 3 4 4 9 3 8 10 7 20 19 19 17 17 23 31 32 26 18 15 16 19 22 26 33 40 46 48 51 51 53 56 55 53 52 51 50 48 46 44 43 40 37 35 33 30
9 2 3 3 4 2 3 4 5 2 7 6 8 10 9 10 22 27 30 38 40 32 20 16 17 21 25 30 36 40 43 46 48 47 50 53 54 54 53 51 50 49 47 43 42 41 39 36 33
3 2 4 4 1 4 10 8 2 5 5 2 8 20 21 13 15 29 37 36 33 29 26 22 17 17 19 24 29 34 38 42 44 46 46 46 51 54 54 53 52 50 48 47 44 42 41 38 35
3 4 4 4 2 7 3 3 5 7 5 1 6 11 7 12 29 38 35 34 32 29 32 29 27 21 18 20 22 26 31 36 41 44 43 44 46 49 53 54 54 52 50 48 46 44 43 41 39
7 8 5 6 4 7 3 9 5 8 10 7 3 1 15 30 31 30 28 28 29 26 23 23 22 22 22 21 21 24 29 31 35 42 43 42 43 42 45 50 52 51 50 49 47 46 44 43 42
3 5 3 2 0 4 6 13 14 9 3 4 14 26 29 30 33 31 30 29 24 23 26 24 23 20 17 17 20 21 24 28 31 33 37 41 41 41 41 42 48 50 50 50 49 49 48 47 44
5 1 1 0 4 7 9 8 14 8 10 15 16 23 28 29 33 33 30 28 26 25 22 23 22 23 21 18 18 18 21 23 28 31 33 36 39 41 41 40 42 47 49 50 51 52 51 50 48
1 3 4 2 6 12 12 8 6 8 12 9 7 16 22 28 28 29 30 30 29 29 28 26 24 24 24 22 22 21 19 21 22 27 30 34 37 40 42 41 43 45 47 50 53 55 54 53 52
9 17 17 13 11 9 15 15 10 12 11 14 11 13 18 19 23 26 26 28 30 31 30 31 30 27 27 26 23 23 24 22 22 24 26 30 34 37 42 43 45 48 48 49 52 56 58 57 57
Wind_Direction
229 255 302 330 44 56 273 264 288 263 253 183 141 162 206 235 175 231 286 172 174 192 195 195 198 199 200 201 200 201 202 206 209 205 214 219 228 233 243 233 227 219 231 248 271 296 303 305 299
229 240 301 57 87 31 271 267 247 238 332 176 193 203 241 260 242 272 258 185 174 186 198 200 199 200 200 200 199 200 203 204 209 204 202 218 235 236 233 232 231 237 246 265 276 268 274 278 285
234 218 256 89 108 197 234 219 254 303 238 196 227 238 249 237 252 226 240 201 186 185 195 199 202 201 201 200 202 199 201 203 197 198 207 223 232 237 229 231 234 244 256 267 270 270 273 272 269
181 143 56 88 232 254 228 248 244 301 261 218 227 266 255 255 264 223 246 209 205 194 195 201 201 202 198 191 193 197 202 204 201 211 222 230 236 238 238 232 231 237 245 253 257 259 263 269 272
165 86 56 12 258 261 252 269 265 246 271 212 201 265 257 270 262 251 254 227 216 207 204 203 203 203 203 198 195 196 205 216 220 229 228 228 232 230 224 225 230 234 239 248 256 260 263 263 273
110 84 55 265 253 258 270 259 241 217 236 231 219 252 262 280 287 262 248 239 216 217 214 209 208 210 211 209 208 212 216 225 233 236 227 226 223 223 221 223 227 228 231 232 232 232 233 239 251
128 97 210 244 268 297 243 278 201 223 246 248 226 216 266 282 284 261 239 226 225 224 220 217 213 215 218 217 216 217 220 226 231 232 223 221 221 218 214 213 216 215 212 206 211 217 236 264 270
154 104 156 233 232 272 275 252 239 210 261 255 211 235 257 291 291 270 244 232 226 227 227 223 221 220 222 222 222 223 225 228 230 231 228 220 214 209 209 211 211 205 199 197 198 205 215 233 247
159 73 211 244 169 246 253 265 227 251 265 244 240 257 276 278 277 266 251 243 236 233 230 227 225 224 225 225 226 226 229 227 225 227 229 223 216 213 214 213 210 205 203 204 212 223 233 244 257
152 148 220 215 198 222 251 235 272 259 266 257 258 274 275 274 275 272 264 259 251 244 240 233 230 228 226 226 227 227 230 227 226 228 229 223 219 215 217 213 209 206 206 211 217 221 238 254 263
184 204 212 240 237 252 254 249 240 235 270 268 257 293 281 278 279 271 267 262 263 260 248 243 237 232 230 229 229 230 231 229 228 228 226 221 220 220 221 219 216 214 215 220 226 236 245 262 285
213 240 229 250 240 251 247 254 212 231 265 287 291 289 283 282 282 277 274 272 265 258 254 247 244 239 237 232 232 232 233 232 231 231 228 225 223 222 220 219 217 219 221 224 229 238 257 278 294
225 244 245 254 258 265 276 266 246 259 281 290 290 287 284 283 280 274 274 268 259 255 252 247 243 243 241 237 236 234 234 234 234 233 232 229 227 227 224 223 222 221 220 222 225 233 245 260 279
260 271 275 278 269 258 218 273 226 265 283 290 290 292 289 284 282 269 264 269 264 262 257 250 246 243 242 241 239 239 237 237 235 234 233 231 230 229 228 227 226 224 223 223 224 228 237 255 279
292 307 310 227 261 224 206 283 231 271 279 284 287 289 302 285 270 275 275 271 277 277 268 257 249 244 242 240 240 239 239 237 237 236 235 233 232 230 229 228 227 227 225 224 226 230 238 248 266
249 322 304 261 160 231 169 257 273 286 279 271 280 291 295 287 281 280 282 285 282 280 275 271 257 247 243 241 241 239 238 237 237 236 236 235 233 231 229 228 227 227 226 224 224 225 227 232 244
303 234 222 309 203 143 186 259 265 295 287 283 287 289 288 285 282 280 283 286 286 281 276 271 264 255 246 240 240 239 239 238 237 236 235 235 235 233 230 229 228 228 226 225 225 226 226 233 244
223 223 246 247 290 192 211 250 276 284 290 283 282 281 281 277 287 296 297 299 296 290 280 270 258 252 249 242 239 238 238 237 237 235 235 234 233 232 231 230 229 229 228 225 225 225 227 229 233
196 226 244 260 259 306 271 270 269 275 274 275 274 277 278 286 302 305 311 314 309 299 286 275 262 251 239 236 236 236 237 237 236 234 234 233 231 231 231 231 230 229 229 229 227 224 225 224 226
243 262 267 274 259 200 269 284 276 260 263 262 270 278 290 296 310 317 326 329 327 311 297 281 266 254 244 238 239 236 238 238 238 236 234 232 230 228 228 230 230 231 230 227 225 225 224 223 223
226 221 248 255 316 253 317 278 240 280 257 269 265 272 289 293 310 328 337 337 336 333 314 293 278 263 252 245 240 237 237 238 239 236 234 232 230 231 230 229 230 232 231 231 230 229 227 228 227
259 232 253 258 355 251 16 293 186 254 278 264 291 297 300 323 338 356 3 359 334 314 306 305 294 270 256 248 245 241 240 240 242 240 237 234 231 231 231 231 231 230 231 231 230 230 229 228 228
235 191 220 194 196 1 302 277 250 222 262 277 286 1 10 19 44 22 15 13 8 359 319 294 287 275 263 257 255 251 246 246 247 246 242 235 232 231 231 233 232 231 231 231 231 229 227 228 229
115 59 36 58 47 280 210 194 287 191 207 309 318 350 355 9 40 21 3 4 4 4 9 350 331 310 286 272 265 263 258 254 250 247 245 243 235 231 232 232 232 233 232 231 230 230 231 231 232
117 71 313 327 7 239 349 269 245 248 250 289 339 330 12 48 10 6 9 11 13 21 32 29 25 13 338 306 289 278 271 264 260 256 252 247 240 234 233 233 232 232 232 232 231 230 230 230 231
176 171 170 234 251 284 348 254 257 230 263 19 57 259 23 9 13 20 16 18 16 15 10 11 9 3 351 332 315 298 284 276 270 268 263 257 251 245 240 237 235 235 235 233 230 231 232 232 232
182 187 195 310 55 285 254 282 289 254 157 43 49 30 25 20 19 20 20 22 16 8 5 359 351 347 343 332 323 315 305 292 281 274 269 266 261 253 248 243 238 238 237 235 232 231 230 231 232
202 171 92 324 181 234 268 276 247 317 34 34 29 21 14 18 16 15 15 13 14 14 11 9 8 6 359 340 324 313 309 300 292 283 277 268 264 258 253 249 245 241 239 237 235 233 232 231 230
145 250 241 274 207 245 256 247 255 71 78 73 42 26 15 5 3 358 356 360 0 358 1 5 1 357 355 354 346 330 315 302 293 289 287 280 270 263 258 253 248 244 240 237 237 237 235 233 231
225 246 233 238 240 236 235 252 3 97 87 76 64 40 31 15 3 2 356 350 352 351 347 352 354 353 353 353 348 344 333 314 302 296 290 282 277 271 263 257 252 248 243 240 237 237 237 234 232